Terminal Aerodrome Forecast
Issued by NWS

Home | Current Version | Previous Version | Text Only | Print | Product List | Glossary On
Versions: 1 2 3 4 5 6 7 8 9 10 11 12 13 14 15 16 17
000
FTUS46 KLOX 242300 AAA
TAFBUR
TAF AMD
KBUR 242349Z 2500/2524 04013G20KT P6SM SKC
     FM250300 VRB05KT P6SM SKC WS015/05030KT
     FM251800 VRB05KT P6SM SKC=

USA.gov is the U.S. government's official web portal to all federal, state and local government web resources and services.